Wind_Speed
12 12 12 13 13 13 13 13 13 12 12 11 11 10 10 10 9 8 8 9 8 7 7 5 5 5 5 6 7 8 9 6 4 6 7 4 4 5 7 12 13 16 14 10 10 9 8 8 6 5 6 4 2 0 1 2 2 3 4 3 1 2 3 3 3 3 1 5 8 7 5 4 7 6 4 5 4 6 6 5 6 6 7 9 15 20 22 20
13 13 14 14 15 15 14 13 12 12 12 11 11 10 10 10 9 9 8 8 8 7 6 5 5 5 5 6 7 8 9 5 6 8 9 6 5 7 8 11 14 16 14 11 11 10 7 5 5 5 5 3 1 1 1 0 2 2 3 2 3 4 5 4 4 5 2 4 8 7 4 2 6 7 6 5 5 7 6 6 7 8 10 13 17 20 20 19
15 15 15 15 16 16 15 14 13 12 12 12 11 11 10 10 9 9 8 7 7 7 6 5 4 4 5 5 7 8 7 6 8 4 4 6 8 10 9 11 15 16 12 9 9 8 4 2 4 4 4 2 1 0 0 0 2 1 3 0 6 5 5 5 4 4 3 2 6 7 4 2 5 6 6 4 4 6 3 6 6 8 12 14 17 18 19 18
16 16 16 16 16 17 16 15 14 13 12 12 12 11 10 10 9 9 7 6 6 6 5 5 3 4 4 5 7 7 5 7 4 4 2 8 11 12 11 11 15 15 9 6 6 5 4 3 4 4 5 2 2 1 1 2 2 1 3 3 7 3 3 5 4 3 2 0 3 6 4 5 6 4 5 4 3 3 2 4 5 8 14 15 16 17 18 17
16 16 16 17 17 17 17 16 15 14 13 12 12 12 11 10 9 9 7 6 6 5 5 4 3 3 4 6 6 4 5 5 4 6 2 9 13 14 13 12 14 12 7 7 6 5 5 4 5 5 4 2 1 1 2 4 2 1 4 5 6 2 3 5 3 2 1 1 2 5 4 6 6 4 4 4 2 4 2 3 4 8 14 16 16 16 16 15
17 17 17 17 17 17 17 17 16 15 14 13 13 12 12 11 10 8 7 6 5 5 4 3 2 3 4 6 5 2 5 1 5 4 5 10 14 15 14 13 13 9 8 8 7 6 6 5 5 4 3 2 2 2 4 3 2 1 4 5 5 4 4 4 4 2 2 2 3 3 2 5 5 3 4 4 3 5 3 4 6 9 14 16 17 15 14 13
18 18 17 17 17 17 17 17 16 15 15 14 14 14 13 13 11 9 7 5 5 4 3 2 1 2 4 4 3 4 5 3 5 4 8 11 14 15 14 13 11 8 9 9 8 6 5 4 3 4 4 2 3 4 4 2 1 3 5 5 4 5 4 3 4 3 3 3 3 2 2 4 5 2 3 4 3 4 2 6 8 11 14 16 15 13 13 12
20 19 19 18 17 17 17 17 17 16 15 15 15 15 15 14 12 10 8 5 4 3 3 2 1 2 2 2 3 5 3 6 5 6 9 12 14 15 14 12 9 8 9 9 7 5 3 3 3 4 4 3 3 3 2 2 2 4 5 4 4 4 3 3 3 4 4 3 2 3 3 4 3 0 2 3 4 4 5 9 10 12 14 14 13 13 12 11
21 21 20 19 18 18 17 17 17 16 16 16 16 16 16 15 13 10 7 4 3 2 2 2 1 2 1 2 7 5 4 5 2 7 10 13 14 16 14 11 11 9 8 8 7 6 3 2 3 5 5 3 3 2 2 1 2 5 4 4 3 4 3 2 3 3 4 3 2 3 1 1 1 2 1 3 4 5 7 10 11 12 13 12 12 12 11 11
23 22 22 21 20 19 18 17 17 16 16 17 16 17 17 15 12 8 5 3 3 2 1 2 1 1 1 4 8 4 6 4 4 8 10 14 14 16 13 10 11 10 8 7 8 7 3 3 4 5 5 3 2 2 2 3 4 4 4 4 3 4 3 2 3 3 3 3 2 3 3 1 2 3 1 2 5 7 8 11 12 12 12 11 11 11 10 10
23 23 23 23 22 22 21 19 17 17 17 17 16 16 16 12 8 4 3 4 3 2 2 1 1 1 3 7 7 2 6 4 5 8 10 13 14 14 11 10 11 10 8 7 8 6 3 3 3 5 3 2 2 1 3 3 3 4 3 4 4 4 4 3 3 2 1 2 3 3 6 4 3 2 3 4 6 8 9 11 12 12 11 11 11 10 9 9
24 24 24 24 24 24 23 21 19 17 17 16 14 14 13 10 4 2 4 5 3 3 2 1 1 1 4 7 2 4 5 3 5 8 9 11 11 10 9 9 10 8 7 7 7 6 3 1 4 6 4 4 2 2 3 3 2 3 2 2 3 5 4 3 2 2 1 1 2 1 5 7 6 3 5 7 7 8 9 10 11 12 11 10 10 9 8 8
25 25 26 26 26 26 25 24 22 19 17 14 11 10 10 8 2 4 6 6 4 3 2 1 1 1 5 3 4 4 3 4 6 8 9 9 8 7 8 9 8 6 4 4 2 4 4 2 6 6 4 6 1 3 2 2 2 3 2 3 1 5 3 4 2 1 1 1 2 3 4 6 8 5 5 7 8 9 9 10 10 11 11 10 9 8 8 8
27 26 26 27 27 27 27 26 24 21 16 11 8 7 8 6 2 5 6 6 4 2 2 1 2 2 5 2 6 1 2 5 7 8 9 10 7 7 8 8 7 5 3 2 1 1 3 3 6 6 3 5 2 4 6 3 3 2 1 2 1 0 3 5 2 1 1 2 1 4 4 2 6 6 7 7 8 10 9 10 10 10 10 9 9 8 8 9
27 27 27 27 27 28 28 27 26 22 14 8 6 5 5 3 3 6 6 5 4 2 1 2 2 3 4 4 5 1 2 4 7 9 9 10 8 7 8 8 6 5 4 3 1 2 1 3 7 5 1 2 2 5 5 2 3 2 2 1 1 2 3 5 3 3 1 1 2 4 4 1 5 5 7 7 7 9 9 9 10 10 11 10 9 9 8 8
27 27 27 27 27 28 29 28 27 21 12 6 4 4 3 2 4 6 6 5 4 3 1 1 0 4 4 4 4 2 2 5 6 9 9 7 5 6 9 7 6 6 5 3 2 2 3 5 5 4 1 3 4 4 3 4 4 2 2 1 2 2 1 3 4 2 2 2 3 5 5 1 4 3 5 6 7 9 9 9 10 10 11 10 9 8 7 7
27 27 26 27 27 28 29 29 28 21 9 4 3 3 4 2 4 6 6 5 2 3 1 3 2 5 2 4 3 3 4 5 6 9 10 6 2 7 10 7 6 7 6 5 4 4 5 4 3 3 5 5 3 4 5 5 3 3 2 1 0 3 4 1 3 2 2 4 3 5 6 2 4 3 3 6 8 9 9 9 10 10 10 9 8 8 7 7
27 26 26 26 26 27 27 29 28 17 7 3 2 3 4 4 6 5 5 4 2 3 3 2 3 4 2 5 4 4 5 5 7 9 9 6 5 8 7 5 7 8 7 6 6 6 6 4 4 4 5 5 4 6 6 3 3 1 1 2 2 3 3 3 3 2 1 4 4 5 6 4 3 4 2 6 9 9 10 9 9 10 9 9 8 7 7 7
27 26 26 26 26 26 26 29 25 13 6 4 2 2 4 5 5 3 4 4 2 4 1 3 4 3 3 6 5 5 5 7 9 9 10 9 7 7 4 4 7 8 8 7 7 8 5 4 6 6 6 6 6 6 5 4 5 6 5 6 6 6 3 3 3 3 3 5 5 5 5 4 4 5 4 5 8 9 9 9 8 8 9 8 8 7 7 7
27 26 26 25 25 26 26 28 21 9 7 4 1 1 2 1 1 3 4 6 6 5 4 2 4 4 1 6 6 6 6 8 8 8 11 11 9 8 5 5 7 8 7 7 7 6 5 6 8 8 6 3 3 5 6 6 6 7 8 7 6 6 2 3 2 2 3 5 3 3 5 5 5 6 6 5 7 9 10 10 9 9 9 8 8 8 8 7
27 26 26 25 25 25 25 28 17 6 9 6 3 5 2 5 4 2 3 5 5 5 7 5 4 5 2 3 5 5 5 7 8 9 11 11 10 9 7 6 8 7 6 5 3 4 4 7 10 8 2 0 2 5 7 7 7 8 8 7 6 4 1 4 1 1 0 4 1 1 6 6 6 6 7 6 7 10 12 12 11 11 10 8 9 9 8 7
27 26 27 25 25 24 25 28 14 4 11 8 4 6 3 5 4 3 5 7 4 4 7 5 4 6 4 4 4 3 4 7 10 10 11 10 11 8 6 8 9 6 6 5 4 4 7 10 12 6 2 2 6 6 8 9 9 9 6 7 5 1 2 3 2 2 1 3 3 3 6 5 5 7 8 8 7 8 10 12 12 12 11 9 9 9 8 8
27 27 27 25 26 24 25 26 12 4 11 8 7 7 1 3 3 3 5 7 5 4 6 7 7 7 7 6 6 7 7 7 10 11 12 11 10 7 6 8 8 5 7 8 8 6 6 6 7 4 2 6 7 7 9 9 8 8 6 7 4 1 1 1 3 4 2 2 4 7 7 5 5 7 8 9 8 6 7 9 10 11 11 11 10 9 9 9
27 28 27 26 27 23 25 24 7 2 10 10 9 5 1 3 5 5 6 6 4 3 4 5 5 7 6 4 8 13 8 5 7 10 14 13 9 6 7 8 7 6 6 9 9 9 7 1 2 1 3 7 8 8 9 8 7 8 8 8 5 1 3 3 3 5 3 3 2 7 8 3 5 7 8 9 10 8 7 8 10 11 11 11 10 9 9 9
28 28 28 28 26 24 25 15 1 5 15 11 6 4 3 6 6 5 6 6 4 4 4 5 4 4 5 5 9 10 6 5 6 8 15 14 8 6 5 4 6 8 8 9 8 9 8 1 2 4 5 7 9 8 9 8 6 7 8 8 7 4 3 2 4 4 4 2 1 5 6 1 5 5 6 8 10 10 9 10 12 13 12 11 10 10 10 9
28 28 28 28 27 27 20 4 1 14 15 5 3 5 2 8 6 4 4 5 4 5 6 6 4 6 7 7 10 7 6 7 3 6 13 13 9 6 5 5 4 6 5 7 6 6 5 2 3 7 7 8 9 9 9 9 8 6 3 3 5 4 3 4 4 4 5 2 3 2 6 3 3 5 5 7 10 11 10 10 12 12 12 12 11 10 10 10
28 27 28 28 27 26 14 4 11 16 8 0 2 3 5 9 4 4 4 5 4 3 5 4 2 6 6 7 11 6 4 7 7 7 10 11 10 6 5 6 5 3 3 5 4 4 5 6 6 7 7 8 9 8 7 9 9 3 3 2 3 3 4 4 5 5 4 2 2 2 3 5 1 4 7 8 8 10 10 10 10 11 12 14 13 12 12 11
27 26 28 28 26 23 12 9 14 10 5 3 3 6 7 7 2 4 5 5 2 2 3 4 3 4 4 6 11 6 2 7 7 7 8 9 9 6 7 7 6 5 7 7 3 5 5 7 6 7 7 7 5 1 1 8 8 1 4 2 3 4 5 4 5 4 2 4 2 2 1 5 2 5 6 8 8 8 10 11 12 11 12 13 13 14 13 12
28 27 27 29 27 20 11 10 10 7 6 6 7 7 6 4 4 4 5 4 3 3 2 4 4 6 6 7 10 7 3 4 3 5 9 9 8 5 5 4 5 4 7 9 6 2 3 2 1 5 6 3 1 4 1 8 6 3 3 4 4 4 5 4 5 3 3 6 3 2 3 5 1 3 5 7 7 8 11 12 11 11 11 12 12 13 13 12
28 28 27 29 24 13 9 12 12 9 8 9 7 6 4 5 4 5 5 2 3 4 3 4 5 7 10 10 9 9 8 4 4 7 9 8 9 7 3 1 5 6 6 9 10 6 2 3 0 5 5 3 3 2 2 5 3 6 7 6 5 5 4 4 4 3 5 4 1 3 4 4 2 2 4 4 4 6 8 9 9 11 11 12 12 12 13 12
29 29 27 27 21 10 7 7 4 3 2 3 2 4 6 5 4 6 4 1 2 5 6 6 7 7 11 11 8 9 10 6 8 10 8 7 9 9 5 4 5 6 6 7 9 9 8 7 4 4 4 3 3 4 3 4 7 8 6 5 5 4 3 4 3 4 6 2 2 3 4 4 3 1 3 3 3 4 5 8 10 13 12 11 11 12 12 11
31 30 26 23 18 14 11 6 3 5 3 1 3 5 7 5 6 7 3 2 2 6 6 6 9 9 11 11 8 9 10 8 9 10 8 8 8 8 8 7 5 6 7 6 6 7 8 6 4 4 5 7 7 5 4 6 8 7 5 4 5 3 3 5 4 4 4 1 3 2 2 3 3 1 2 1 3 3 3 4 7 11 12 11 10 10 11 11
32 30 24 18 15 16 15 10 11 13 9 4 5 6 6 7 7 7 6 4 1 3 3 5 8 8 9 9 8 9 9 8 10 10 9 8 7 8 10 9 7 7 4 3 4 5 6 6 7 7 6 9 10 5 4 5 5 7 5 4 5 4 4 6 4 3 3 2 3 1 2 3 2 1 1 2 3 2 2 2 3 5 8 10 10 9 9 10
32 28 21 14 10 9 8 6 9 10 8 6 6 7 9 10 6 4 8 6 3 3 3 5 7 7 8 9 7 10 8 7 10 10 9 9 7 7 9 10 11 9 5 4 3 3 4 3 9 9 4 10 13 6 4 4 5 6 4 4 6 5 4 5 4 3 3 1 2 2 2 4 2 2 2 3 5 4 3 2 3 4 4 5 8 10 9 10
31 24 15 8 4 3 3 5 7 7 7 7 7 8 10 10 6 4 6 5 3 5 5 4 5 7 9 8 7 9 6 5 11 10 8 9 8 7 8 9 12 10 7 5 2 2 6 1 8 6 2 7 11 5 4 6 4 4 4 5 5 3 3 4 4 4 5 4 3 3 3 3 2 2 4 4 4 4 4 4 4 5 5 5 7 9 9 9
28 20 8 3 2 3 6 7 7 10 9 8 8 9 10 8 5 3 2 0 2 5 6 6 7 8 9 8 8 9 5 3 10 10 7 9 9 8 8 7 10 12 9 5 2 3 6 2 8 6 3 6 7 4 5 5 2 3 4 4 1 3 4 4 3 3 5 6 3 1 4 4 2 3 4 3 3 5 6 5 5 5 6 6 6 7 8 9
23 15 3 1 3 6 8 7 11 12 8 9 10 9 8 7 4 1 1 1 1 3 6 7 6 6 8 8 8 11 9 5 9 8 6 9 7 8 11 8 8 13 12 9 4 2 4 2 7 6 5 5 3 3 5 3 3 3 3 2 2 0 3 4 3 3 4 6 2 1 5 5 3 2 4 4 3 5 6 4 5 5 5 6 5 6 7 8
16 10 2 4 8 6 6 7 13 11 7 9 11 9 7 6 3 1 0 0 1 3 7 7 4 4 7 8 8 11 10 8 9 8 6 7 5 7 12 10 10 13 14 11 6 2 4 2 6 5 3 6 5 5 5 4 4 5 3 2 3 3 3 3 4 4 4 5 3 1 2 5 4 2 1 2 2 4 6 4 4 4 4 4 5 5 6 7
11 7 1 7 10 5 7 10 10 8 7 9 10 8 6 6 4 2 2 2 3 4 6 6 3 3 6 5 4 9 11 9 8 8 7 6 5 6 9 9 9 12 13 12 7 3 4 4 3 6 4 5 7 7 6 6 6 5 4 3 4 5 3 1 3 4 4 5 5 2 2 3 2 2 3 2 3 3 4 4 3 2 3 3 2 3 4 5
8 4 2 4 6 6 6 5 6 7 8 9 8 5 4 5 5 4 3 3 4 4 4 4 3 4 5 4 3 4 8 8 7 7 6 6 6 6 8 8 8 9 11 11 8 4 4 5 2 6 6 5 6 5 4 4 5 6 6 5 5 4 3 3 4 4 5 6 5 4 5 2 3 3 2 3 4 2 2 2 3 2 2 1 1 1 1 2
6 3 3 3 3 5 2 5 6 6 7 7 7 5 2 2 4 5 5 4 5 4 4 5 5 4 3 4 4 3 5 6 7 7 5 7 7 6 8 9 8 9 9 9 9 6 5 5 4 5 6 5 4 3 1 4 3 4 5 5 5 5 5 5 5 4 3 6 5 5 7 2 4 2 2 4 3 2 2 1 2 3 1 0 1 0 1 1
5 3 3 3 3 4 4 6 4 4 7 5 4 4 2 1 4 6 5 5 6 6 4 5 7 6 5 6 5 3 5 6 7 8 6 7 9 5 5 7 8 11 9 8 9 6 2 4 5 4 3 1 5 5 1 3 4 5 5 5 4 5 6 6 6 3 3 5 4 5 8 3 4 3 3 3 1 1 0 1 1 2 1 1 2 2 2 2
4 3 2 1 2 4 5 5 4 4 7 3 2 3 3 3 6 6 5 7 7 6 6 6 7 8 7 7 6 5 6 6 6 8 7 7 7 2 5 8 9 11 9 8 8 6 1 4 5 3 2 2 5 4 2 1 3 6 6 5 5 6 6 6 7 5 4 6 4 5 8 2 3 3 3 3 2 2 3 2 1 1 1 1 1 2 2 3
4 4 1 1 2 4 5 4 3 5 7 5 4 6 6 5 7 7 7 8 7 5 7 7 7 8 7 6 6 7 6 6 7 9 7 6 3 4 5 10 10 10 9 6 7 8 5 4 4 4 5 5 5 4 4 4 6 7 4 3 5 7 6 7 6 4 6 9 7 7 7 1 4 5 4 4 4 5 5 3 2 2 1 1 1 1 2 3
4 3 2 2 3 5 4 3 3 4 5 6 7 8 7 5 6 7 7 7 6 6 7 6 6 6 6 6 7 8 7 6 7 6 5 6 3 3 4 10 11 11 6 1 4 9 6 5 5 6 6 5 4 3 3 3 5 5 4 4 6 8 7 6 6 5 7 8 6 7 8 3 3 6 5 3 4 5 5 5 4 3 2 1 1 1 2 2
4 1 1 2 3 4 3 1 3 5 3 4 6 6 8 7 6 5 6 7 6 7 8 6 5 6 7 8 8 9 10 9 7 5 5 7 4 3 4 8 10 8 2 1 5 9 5 5 7 7 7 5 3 1 2 2 4 3 4 6 6 7 7 6 6 6 5 6 6 8 8 7 5 1 2 2 4 5 5 5 4 3 2 2 2 2 2 2
3 2 2 1 1 3 3 2 2 3 2 2 3 3 7 8 5 5 6 5 4 6 7 7 7 8 8 9 10 10 11 11 9 7 8 8 3 4 4 7 7 5 5 5 9 8 4 6 8 8 7 4 2 2 2 3 5 3 3 5 5 5 6 8 8 5 4 5 7 3 2 6 8 6 3 2 3 4 4 4 4 3 2 2 2 2 3 2
2 2 2 2 2 2 2 0 2 3 3 3 3 3 6 8 6 5 5 4 4 5 5 7 9 9 7 6 7 8 10 10 10 10 10 8 4 4 6 7 7 6 8 9 8 6 6 7 8 9 7 3 1 1 2 3 4 3 4 5 4 5 7 8 10 7 5 7 8 5 4 7 8 7 5 3 2 4 3 2 2 2 2 3 2 3 3 3
2 2 1 1 3 3 4 4 4 5 4 4 4 6 7 8 7 4 2 4 6 5 4 6 6 6 5 5 5 7 7 6 8 9 8 7 7 6 7 7 7 7 9 10 7 4 5 3 7 8 7 4 4 4 4 4 4 4 5 5 5 6 7 7 9 9 7 9 11 9 9 11 9 6 3 1 2 3 1 2 2 3 3 3 3 4 3 2
3 3 2 3 5 4 4 4 5 5 3 3 4 6 7 8 6 2 2 5 5 4 3 4 2 2 3 3 6 7 2 4 4 3 2 4 6 6 6 6 7 8 10 10 8 4 4 3 6 8 6 5 5 5 5 6 5 6 6 5 6 7 7 7 8 8 7 9 10 8 10 9 4 0 1 2 1 2 3 4 4 3 2 2 4 4 3 2
4 3 3 5 4 2 3 4 4 5 4 5 5 3 5 6 3 3 4 6 6 3 1 3 5 4 2 4 6 3 4 7 7 6 5 5 5 3 3 3 4 8 11 9 7 7 5 4 6 7 7 6 6 7 6 6 6 7 7 7 8 8 7 6 6 5 6 8 7 6 8 6 2 4 3 3 2 3 4 4 4 3 2 3 4 3 3 2
3 2 2 4 3 2 3 3 4 5 4 2 2 1 3 3 2 5 4 4 4 3 2 6 7 5 3 4 3 3 8 9 10 9 8 7 7 5 4 3 3 6 8 8 7 7 7 6 6 7 8 5 7 7 6 6 7 7 5 7 9 9 8 6 6 5 7 7 6 5 4 1 4 3 3 3 3 4 4 3 2 2 2 3 3 2 2 2
Wind_Direction
19 17 13 9 8 7 4 0 357 357 358 359 359 358 358 358 353 342 332 323 322 320 318 324 316 317 318 319 319 320 331 327 291 243 235 258 226 195 180 180 177 169 164 161 171 174 179 197 196 208 230 222 239 283 210 256 267 255 246 233 140 94 77 51 52 68 175 145 128 144 164 152 142 150 149 171 162 123 129 120 117 96 76 100 116 128 135 141
19 16 13 10 7 5 3 358 353 352 351 352 353 352 352 350 349 343 333 321 314 310 310 315 314 322 319 319 322 321 334 317 255 242 240 250 201 174 168 176 176 167 166 174 183 191 197 199 197 217 245 233 154 200 232 220 252 276 280 232 74 51 67 46 34 46 22 126 130 140 145 152 147 151 168 182 149 144 137 120 137 119 106 116 126 134 138 145
20 16 12 8 5 2 1 358 352 348 346 345 346 346 346 344 344 342 336 326 315 311 304 305 314 317 312 317 320 326 338 289 244 225 226 214 177 160 156 171 174 167 171 189 196 203 237 247 205 235 269 264 101 251 269 92 265 322 293 291 73 60 79 62 38 43 25 103 143 140 131 140 145 153 169 184 153 158 142 119 143 137 131 135 138 141 143 151
18 13 9 6 3 0 359 357 352 346 341 339 340 338 339 338 336 337 336 327 317 313 301 302 311 303 310 318 322 334 317 262 216 89 132 180 166 157 149 159 173 174 183 207 207 214 252 233 210 262 281 268 92 204 80 46 296 360 333 29 67 62 84 65 38 47 41 183 160 141 146 144 143 170 164 168 153 139 144 127 133 143 144 144 146 149 150 155
16 10 7 4 1 359 356 355 352 346 339 334 332 331 332 331 329 330 328 322 318 315 302 301 304 299 313 318 328 340 281 243 115 78 156 173 161 155 147 153 167 175 194 199 194 208 220 219 228 259 275 287 87 195 81 56 298 34 41 45 56 20 55 62 48 55 90 147 165 157 161 131 138 193 174 176 119 64 58 110 111 138 147 149 150 153 154 158
16 11 6 3 359 356 353 352 350 345 338 332 327 325 323 322 323 323 321 318 316 313 302 302 301 303 313 318 341 317 268 258 85 92 147 162 159 154 150 152 157 166 187 185 183 197 202 220 241 267 284 304 14 23 73 84 273 24 81 69 48 31 52 65 71 92 156 151 158 162 138 130 155 185 180 199 109 54 28 93 110 133 146 150 150 156 159 160
20 14 9 4 358 355 352 349 347 343 339 332 325 319 315 315 317 319 317 311 314 311 293 298 295 301 316 322 332 251 241 78 84 132 145 158 157 155 155 153 155 162 180 184 186 193 199 227 262 310 301 306 21 27 71 115 321 30 82 87 60 56 69 74 82 98 127 123 125 147 171 171 186 139 152 200 121 87 90 106 117 131 143 150 151 159 160 160
23 18 13 7 1 356 351 348 345 341 337 331 324 316 311 311 315 318 311 303 306 296 271 281 260 292 318 298 263 219 171 71 89 150 153 159 157 158 158 159 168 172 186 194 197 204 213 250 304 316 312 10 9 19 74 153 90 57 80 98 87 77 76 86 89 87 100 101 119 164 194 182 193 136 146 181 125 110 122 121 127 137 146 153 155 159 158 161
24 21 17 11 6 360 353 348 343 340 336 330 323 314 309 309 312 309 300 290 281 282 264 260 245 287 325 259 256 212 106 48 124 160 160 164 163 163 163 171 180 184 195 198 210 218 228 287 359 336 324 353 341 19 64 261 56 64 88 111 108 100 81 92 103 83 90 92 137 165 160 32 211 227 164 151 139 125 131 135 135 143 152 156 157 159 158 163
22 20 18 15 10 5 357 350 344 341 336 330 323 314 311 313 311 300 283 257 252 256 237 251 241 287 311 257 252 203 86 56 144 156 169 173 170 169 175 187 183 193 204 196 208 214 244 327 17 334 304 303 324 36 43 359 46 84 109 111 104 108 98 94 105 93 99 82 73 137 125 333 238 216 171 145 157 143 142 143 141 148 156 158 158 157 161 163
18 17 16 15 12 8 3 355 348 343 338 333 326 319 322 328 316 285 237 222 223 224 222 251 215 282 292 264 258 138 94 85 138 156 174 179 179 178 188 195 187 202 208 201 208 211 257 353 347 302 297 308 298 93 73 40 71 105 131 132 126 137 115 106 107 90 177 100 50 134 152 181 214 200 169 171 166 154 150 146 148 154 154 158 159 155 163 166
13 13 13 12 10 8 4 360 353 347 342 336 330 329 335 344 331 198 187 196 196 210 211 234 227 15 286 260 287 71 100 121 146 152 164 175 184 190 199 197 198 217 224 222 208 199 235 360 309 303 345 319 287 120 83 75 106 126 189 210 151 171 135 89 102 58 234 158 30 197 178 183 189 167 141 157 164 159 157 153 154 157 154 159 160 157 164 166
10 9 9 9 8 6 3 0 356 350 346 340 339 340 343 353 14 162 172 182 183 197 192 251 306 338 270 248 84 76 98 133 150 143 154 167 177 193 201 201 210 230 245 257 212 189 226 270 303 316 331 302 7 127 202 133 156 170 234 290 219 183 133 81 98 27 216 147 351 258 228 184 169 151 131 150 165 162 161 161 160 159 159 163 164 165 166 169
7 6 6 5 5 4 1 359 355 351 349 346 348 349 350 360 94 153 165 170 173 182 173 329 357 276 261 87 95 133 92 124 157 152 156 160 156 164 183 197 209 222 225 260 34 156 219 246 280 287 275 289 41 159 210 179 193 230 270 273 295 337 85 85 66 339 187 138 270 253 266 164 142 141 143 156 168 166 167 166 164 161 162 166 167 172 169 172
5 4 3 3 3 2 359 356 353 351 350 353 356 3 2 5 126 146 158 159 164 165 140 343 7 266 252 111 113 231 86 146 175 170 165 159 153 148 162 181 186 196 197 199 97 115 200 242 262 267 195 233 226 206 223 216 210 250 280 230 24 14 97 103 68 360 7 105 213 237 273 167 138 135 142 161 177 174 176 169 167 165 164 168 170 175 174 172
3 2 1 0 1 360 358 355 351 349 351 359 3 21 32 49 132 145 151 149 160 145 90 309 246 265 271 112 127 222 189 181 174 171 172 170 166 138 142 153 159 176 182 192 217 196 226 243 262 290 256 206 220 232 249 240 210 185 264 297 19 345 20 112 100 52 348 302 214 216 261 215 127 124 131 155 182 183 182 173 170 167 165 171 173 175 176 174
0 360 359 358 359 358 356 353 350 348 351 10 16 48 64 96 139 139 140 143 163 154 188 300 280 265 278 104 154 183 157 160 157 167 175 182 172 135 142 150 151 164 174 182 198 202 213 224 235 249 236 225 229 250 247 239 214 159 204 276 295 328 337 23 101 81 329 282 243 223 256 284 126 137 134 157 180 189 186 176 172 169 170 173 177 179 176 177
357 357 357 356 357 357 355 353 349 347 357 19 33 82 89 118 130 121 135 130 122 177 210 273 260 256 169 145 170 127 115 145 152 162 167 167 160 148 149 151 150 159 173 180 190 203 202 205 231 244 231 220 220 240 250 294 347 22 332 313 306 317 340 8 38 54 313 272 263 246 255 264 164 145 133 164 178 191 191 182 175 174 176 176 181 186 178 180
354 355 355 354 355 355 353 352 349 351 6 11 28 93 113 130 134 149 182 176 211 240 246 168 208 287 106 146 145 98 105 139 144 154 162 162 164 165 159 145 160 173 181 182 183 196 211 213 222 241 239 225 218 241 276 333 329 318 315 312 315 313 335 25 27 35 332 280 263 263 269 272 219 171 153 164 175 193 199 191 183 180 183 183 187 190 183 186
352 352 352 352 353 353 352 350 349 1 10 357 325 236 178 180 190 174 196 218 236 271 306 202 219 281 117 143 138 122 130 149 158 160 163 167 169 174 178 167 177 190 199 198 178 181 226 240 230 239 248 229 206 244 281 299 291 292 295 293 297 300 340 69 72 64 330 285 274 288 285 278 244 197 169 162 173 192 203 198 191 189 191 191 192 189 185 188
349 349 349 349 350 351 350 348 347 4 5 357 256 255 299 351 339 360 331 262 226 234 264 264 254 267 251 136 141 148 158 172 172 157 159 172 180 180 172 180 196 191 195 207 166 157 214 241 243 245 265 46 237 258 268 270 269 269 277 284 280 282 24 87 85 78 296 277 302 325 283 264 240 216 185 179 190 197 201 201 196 194 196 199 200 195 188 187
348 347 346 346 346 348 347 345 342 340 357 359 252 263 337 19 349 344 322 288 258 219 242 245 240 252 235 196 188 207 215 182 163 157 161 174 192 196 167 185 215 188 164 194 195 185 212 238 245 235 115 233 256 264 256 253 258 259 260 269 271 285 88 113 147 147 165 275 318 332 295 268 229 220 201 195 203 205 204 206 203 198 199 203 204 201 196 192
347 345 344 344 343 344 343 341 334 316 349 343 275 279 5 39 331 284 261 282 285 194 208 217 220 222 204 203 200 202 214 190 170 167 170 184 200 208 189 195 219 190 167 201 217 217 216 232 253 244 191 234 243 237 244 248 247 250 252 258 268 74 288 275 157 166 189 267 308 311 289 262 214 214 211 204 204 206 210 216 215 211 208 208 206 202 201 197
346 345 343 342 340 341 341 337 321 296 335 315 282 273 212 353 329 271 253 284 277 186 186 202 223 223 195 169 175 190 208 200 188 170 171 193 197 191 213 214 216 210 198 212 224 242 249 140 56 284 221 234 241 225 230 242 238 235 236 250 274 280 279 309 128 161 201 200 265 299 282 233 185 204 209 198 199 206 210 216 219 218 217 216 214 207 204 202
345 344 341 341 339 338 338 333 205 331 324 302 264 208 210 331 332 264 262 282 238 171 158 176 207 210 169 143 167 187 207 194 203 168 168 196 195 170 207 217 222 222 205 210 224 246 256 194 139 238 232 231 244 236 225 233 248 236 217 232 265 279 272 260 159 189 247 198 131 310 305 90 141 190 204 187 192 205 212 217 216 214 215 217 221 215 209 206
343 343 340 340 339 337 335 327 357 329 315 286 166 167 246 332 331 226 252 280 217 152 154 176 186 167 159 164 164 179 208 184 166 147 168 194 197 192 210 178 218 243 198 201 228 248 248 189 212 243 241 230 239 244 225 222 251 249 173 195 252 265 257 224 205 244 293 360 94 306 314 341 120 151 170 175 189 202 209 219 219 212 211 212 217 218 213 210
340 340 338 336 339 341 338 306 323 321 302 217 143 218 304 334 317 199 244 264 210 147 152 161 163 165 161 165 167 183 193 140 125 150 176 192 185 205 228 176 191 229 175 201 223 219 212 201 209 228 237 230 231 241 214 212 246 269 88 132 209 224 229 219 235 266 311 350 164 185 294 299 321 104 133 162 187 207 212 217 220 215 212 210 211 215 215 213
336 337 336 334 335 337 324 295 310 308 297 332 272 269 317 327 254 207 264 263 163 116 157 130 107 157 150 162 184 206 103 131 161 162 166 191 187 204 230 209 207 179 171 221 216 130 168 203 204 211 227 226 223 303 147 214 239 35 87 184 195 215 213 207 245 272 308 290 252 141 283 287 328 90 127 158 178 210 224 225 221 215 213 213 212 213 214 212
334 334 334 331 329 331 325 299 289 278 284 286 272 290 314 290 233 221 265 268 156 148 155 130 139 168 159 163 193 211 167 165 199 135 148 186 202 230 253 239 250 198 181 231 253 114 129 156 211 230 237 245 360 17 310 234 233 115 148 189 170 191 196 210 250 270 270 274 302 22 317 307 340 116 146 172 185 206 221 227 227 220 214 213 215 215 212 208
332 331 332 330 327 333 328 295 276 278 275 257 268 295 264 230 230 232 237 232 168 147 130 154 165 168 170 174 189 200 197 173 117 140 161 180 194 219 269 270 256 244 209 228 253 265 209 120 91 254 260 321 7 48 222 235 172 141 176 185 169 181 192 222 259 284 268 258 17 10 328 313 311 101 119 153 183 202 205 209 223 227 219 211 213 216 214 207
328 329 330 325 317 306 299 280 265 312 254 207 285 268 230 214 229 244 221 169 191 155 150 173 166 163 183 193 188 183 197 185 145 163 172 171 188 201 213 209 216 230 226 222 232 236 218 196 197 220 225 235 186 142 144 169 162 171 189 189 187 183 201 236 247 262 266 272 58 1 329 290 271 40 61 102 137 180 189 192 204 214 218 212 210 213 215 211
326 328 327 319 303 275 262 245 244 273 225 163 305 236 214 203 221 238 199 135 195 174 166 172 171 178 190 202 202 180 192 194 174 185 190 182 191 195 208 210 190 205 220 208 201 204 201 192 174 167 186 206 198 155 141 168 181 198 202 203 224 218 224 252 250 246 260 49 57 357 325 279 263 333 354 57 135 165 171 190 196 200 210 213 211 214 213 213
326 328 325 313 293 268 263 255 250 253 241 255 265 214 210 223 222 222 204 190 134 144 157 155 168 185 190 201 205 185 191 191 182 198 202 195 202 199 206 217 221 235 241 200 201 190 167 153 165 178 184 205 215 202 174 183 196 211 206 214 247 261 259 262 261 255 264 96 82 18 290 269 251 201 344 56 91 105 133 188 198 193 210 211 204 206 209 214
327 331 327 313 292 273 271 252 235 236 229 234 227 199 214 227 219 215 217 205 115 112 149 149 164 188 202 213 196 179 198 195 179 194 198 198 218 211 203 211 223 242 260 233 236 221 212 170 171 182 167 188 209 234 235 209 204 215 221 236 258 283 281 280 291 291 305 24 142 184 241 288 301 161 146 109 103 102 113 148 179 186 204 203 193 195 203 215
331 336 330 312 292 284 293 265 226 206 202 208 207 203 212 220 218 223 224 204 163 168 162 161 200 207 205 216 198 187 217 203 181 196 204 202 216 215 206 203 203 218 240 230 194 212 256 244 147 160 97 181 200 220 241 234 212 199 229 246 269 307 281 279 298 307 317 298 231 199 243 298 324 157 155 149 153 154 142 137 166 185 181 184 195 197 200 214
336 341 329 263 254 277 294 279 209 188 198 202 204 211 216 222 229 227 220 239 208 195 182 188 214 222 208 198 194 195 218 214 186 195 208 212 222 220 214 205 191 202 222 227 175 193 240 155 128 157 181 193 214 207 202 243 237 174 216 241 323 348 287 278 274 268 285 276 249 215 268 269 230 190 164 168 196 176 164 159 162 173 178 186 197 195 191 202
335 337 319 258 294 271 279 261 187 183 203 208 210 220 220 220 231 269 58 40 264 220 220 210 201 219 218 202 194 190 190 191 191 199 205 203 215 217 213 212 197 202 215 231 238 226 246 156 126 169 187 168 225 229 191 243 274 228 223 178 108 26 269 275 269 245 250 261 241 180 287 296 280 219 158 165 184 156 155 160 155 161 179 192 191 183 184 190
320 311 287 360 339 292 251 193 173 183 203 210 220 229 226 216 202 180 113 57 270 229 232 232 203 209 228 222 199 178 179 186 186 200 212 193 188 201 207 208 201 206 215 227 233 192 235 230 126 161 182 139 170 215 199 203 249 279 302 148 196 253 237 212 259 272 262 273 279 168 267 283 265 268 107 145 132 129 142 149 158 166 170 182 183 172 175 181
295 279 210 34 15 41 138 156 172 193 200 208 222 224 223 225 207 189 206 228 256 243 237 243 230 217 231 236 201 165 179 197 187 194 213 198 178 181 198 206 198 202 210 216 221 180 219 254 148 152 162 146 172 205 212 194 198 245 266 217 235 281 298 243 250 272 276 285 295 286 262 248 217 356 359 64 93 110 139 150 166 168 148 157 166 159 169 181
285 274 121 63 16 45 104 172 203 203 200 212 227 216 203 226 222 203 204 227 247 247 252 254 234 221 218 227 239 179 189 208 202 203 207 189 185 180 189 203 194 189 197 204 214 201 200 241 206 144 160 185 189 196 230 227 200 213 227 219 219 241 280 279 247 244 273 288 290 282 281 293 83 43 21 92 102 105 124 152 162 155 149 132 101 111 162 186
278 270 103 94 323 348 329 234 210 197 210 220 234 233 203 229 239 208 190 217 246 247 270 277 257 252 243 226 228 190 194 213 208 217 213 189 209 211 186 197 189 166 175 194 204 206 202 221 211 164 181 199 161 129 321 301 268 246 242 238 231 226 243 262 246 219 247 281 288 287 285 312 78 67 72 91 102 115 120 180 159 141 147 72 59 358 314 285
278 291 75 77 323 320 276 229 190 207 228 222 238 246 220 243 255 236 208 211 232 233 237 258 256 257 260 247 243 220 215 222 208 216 222 204 220 225 167 184 188 170 175 194 192 189 211 232 216 189 195 163 100 98 45 313 285 268 265 273 275 255 250 260 269 270 258 265 283 288 282 298 81 82 85 97 116 110 113 270 168 122 108 38 338 336 343 307
306 327 64 90 314 296 256 225 188 216 230 226 270 245 218 232 237 235 228 220 226 229 224 236 245 243 245 244 249 245 228 230 224 221 227 221 224 202 134 168 186 185 192 195 177 162 178 227 215 194 180 135 114 126 153 216 249 243 241 254 269 272 277 281 289 308 289 268 267 263 266 281 92 106 106 124 168 199 229 241 228 162 122 110 299 318 322 300
320 302 250 273 277 247 245 244 214 217 217 214 237 226 215 236 238 231 231 224 221 229 229 235 237 234 240 243 246 243 224 223 227 219 229 235 202 85 140 177 188 198 202 195 171 171 193 209 198 204 205 187 179 187 187 197 230 246 245 230 251 265 272 273 276 280 271 275 281 270 272 286 132 154 142 153 189 208 217 206 195 211 177 163 236 283 296 300
296 250 218 222 208 217 246 298 304 263 219 209 229 226 210 215 225 234 251 242 229 239 242 239 234 231 235 234 237 239 232 236 233 214 229 238 181 111 181 192 196 208 215 270 169 173 191 204 193 217 228 214 215 216 202 213 222 236 244 224 237 249 246 255 268 257 258 275 280 267 275 296 140 149 145 173 208 221 218 200 189 200 207 228 263 278 280 291
306 279 250 190 179 219 242 293 287 278 246 216 224 221 220 221 201 204 245 247 227 238 250 246 236 232 228 226 229 229 225 230 234 228 241 235 193 128 173 192 205 209 161 22 196 179 186 207 203 233 252 254 282 40 68 300 261 237 234 223 228 244 246 252 260 262 273 280 267 258 267 287 296 256 166 194 220 235 234 209 195 197 210 234 263 272 272 276
299 318 337 342 247 228 198 169 252 268 285 258 235 209 225 233 207 181 211 230 223 231 245 245 237 235 227 221 227 228 223 221 225 236 246 240 201 102 141 189 208 179 128 185 202 185 193 203 197 224 243 257 324 54 112 258 270 274 257 234 224 232 243 250 256 277 322 287 272 285 284 279 288 293 299 299 250 251 250 224 204 195 205 224 253 264 263 257
296 332 14 340 293 247 212 7 342 314 271 247 251 248 235 233 228 206 196 209 217 221 238 231 220 229 237 229 232 232 221 217 219 226 235 236 217 153 160 187 199 169 168 195 194 191 221 202 182 204 216 187 135 170 180 228 255 265 254 246 235 226 234 252 262 273 291 272 277 323 326 284 283 290 305 336 303 279 267 221 198 186 199 202 218 247 253 251
305 305 58 270 280 293 305 319 321 293 257 231 239 241 238 235 229 222 215 226 213 204 243 242 210 218 244 238 240 236 223 225 225 217 219 227 224 204 181 183 184 179 191 195 180 211 251 193 166 196 200 166 163 177 189 215 232 239 238 237 237 236 237 249 264 271 272 270 277 291 290 282 283 291 308 21 329 299 253 163 182 202 212 208 218 233 235 246
336 329 360 293 271 276 281 275 272 267 235 208 226 225 235 244 239 241 270 250 233 190 215 265 285 300 282 237 226 230 257 341 296 249 238 232 222 215 201 192 180 181 198 196 178 199 247 192 175 198 204 189 184 183 190 210 226 237 243 241 236 245 248 246 258 267 263 266 274 280 282 280 274 269 128 140 211 242 198 184 195 208 217 217 227 230 217 214
337 334 339 300 280 255 254 246 250 261 238 214 217 209 223 234 260 322 275 247 266 277 278 326 332 322 277 205 203 218 5 345 312 308 309 279 262 265 242 218 189 187 193 192 184 192 205 188 179 204 224 211 192 201 207 210 229 242 250 252 242 241 248 247 255 263 261 268 269 264 276 282 128 123 155 175 196 224 216 200 196 194 191 212 228 224 196 172
316 282 290 289 282 228 240 240 227 241 245 222 222 263 250 238 312 318 276 224 236 260 343 343 329 311 248 188 158 4 344 321 302 301 295 279 279 284 273 275 259 218 196 185 190 192 189 185 183 212 239 212 179 204 221 221 240 249 249 253 246 241 245 251 257 260 259 267 269 268 289 360 115 153 203 193 200 224 223 205 197 189 183 210 226 215 173 146
Height
808 807 805 804 803 802 801 799 798 797 796 795 794 793 791 791 789 788 787 786 785 785 784 784 784 784 784 783 782 782 781 781 781 781 779 776 775 776 776 777 778 780 781 783 784 783 783 782 782 781 780 779 779 780 780 779 778 782 787 790 793 793 794 794 792 794 796 794 794 794 791 795 800 796 790 789 790 792 794 793 791 791 790 790 794 798 802 807
808 807 805 804 803 802 801 800 798 797 796 794 793 792 791 790 789 788 787 786 785 784 784 784 784 783 783 783 782 781 781 780 781 779 776 775 775 776 776 777 779 780 781 782 782 781 781 781 779 779 779 778 779 779 781 780 779 786 788 788 795 795 792 791 790 790 790 791 793 792 791 792 796 795 790 795 799 795 797 798 795 796 796 795 797 800 804 807
808 807 805 804 803 802 801 799 798 797 795 794 793 792 791 790 789 787 787 785 785 784 784 783 783 783 783 783 781 781 781 780 780 776 773 774 775 775 776 778 779 780 781 782 782 780 780 779 778 779 779 780 779 779 783 782 780 785 788 791 795 793 791 790 790 792 790 788 791 792 791 792 792 789 790 797 800 797 799 799 798 801 800 799 799 800 804 806
808 807 806 804 803 802 800 799 798 796 795 793 792 791 790 789 788 787 786 785 784 784 783 783 783 783 782 782 781 781 780 781 778 773 773 773 774 775 777 778 779 781 782 782 782 781 780 779 778 778 781 783 779 780 784 785 783 784 788 794 794 790 793 794 791 791 789 787 789 791 792 793 790 786 790 796 801 803 798 793 794 798 798 799 799 800 803 805
808 807 806 804 803 801 800 799 797 796 794 793 791 790 789 788 788 786 785 785 784 783 783 783 783 782 782 781 781 780 781 786 779 771 773 773 774 776 777 779 780 782 782 783 782 781 781 778 779 780 782 783 781 783 786 783 782 787 791 793 792 790 796 795 791 792 790 788 789 791 793 792 789 789 791 794 802 804 794 788 788 790 793 796 797 799 801 804
809 807 806 804 803 802 800 798 797 795 794 792 791 789 788 787 786 786 785 784 784 783 782 782 782 782 782 781 781 780 783 787 777 771 775 773 775 776 777 779 780 782 782 782 781 780 781 779 781 784 783 783 783 785 787 782 780 791 795 791 792 791 796 795 791 792 790 790 794 793 790 787 792 795 791 792 798 796 787 784 785 787 790 793 796 798 800 803
809 807 806 804 803 801 799 798 796 794 793 791 790 788 787 786 785 785 784 784 783 783 782 782 782 782 781 780 781 779 778 779 773 773 775 774 777 777 778 780 780 782 782 781 780 779 780 781 784 784 783 784 785 785 785 783 780 790 797 794 794 793 795 794 791 791 790 793 794 790 789 790 796 796 792 793 792 789 785 782 785 787 789 793 796 798 800 802
809 808 806 804 802 801 799 797 795 794 792 790 789 787 786 785 785 784 784 784 783 782 782 782 782 781 781 781 780 777 775 776 774 775 775 775 777 777 779 780 781 782 781 781 779 778 780 783 784 782 786 786 783 784 783 785 786 791 798 797 795 795 794 791 790 791 791 793 792 791 794 794 793 792 793 794 790 786 784 784 786 789 791 794 796 798 799 801
809 808 806 804 802 800 798 797 795 793 791 789 788 786 784 784 783 783 783 783 782 782 782 781 782 781 781 780 777 777 778 775 775 775 776 777 777 778 780 780 782 782 780 781 779 779 781 783 783 781 787 785 781 783 782 788 795 792 794 796 795 797 795 792 793 793 793 793 792 796 800 797 791 790 795 793 788 786 784 786 788 790 794 795 796 798 799 800
810 807 806 804 802 800 798 796 794 792 790 788 786 784 783 782 782 782 782 782 782 782 781 781 782 780 781 779 777 781 779 774 775 776 776 777 778 779 780 780 781 781 780 780 779 779 779 780 780 778 782 782 781 784 783 789 793 789 791 794 794 796 794 794 795 794 793 792 793 800 806 802 793 795 804 795 786 786 786 790 790 792 796 796 796 797 798 800
809 808 806 804 802 800 797 795 793 791 790 787 785 783 781 781 780 781 781 782 781 781 781 781 781 780 781 779 777 780 777 775 777 776 777 778 779 780 780 781 781 781 780 779 780 779 778 779 777 777 782 782 781 784 784 784 786 787 791 795 795 795 795 794 796 795 794 795 793 797 806 805 797 800 806 795 785 786 789 792 792 793 796 796 797 797 799 800
809 807 805 803 801 799 797 795 792 790 788 786 784 782 781 780 779 780 780 781 781 781 781 781 781 781 781 778 776 776 775 776 777 776 777 778 779 780 780 781 781 781 780 779 779 779 780 779 778 782 784 781 783 790 788 781 784 788 790 797 798 795 798 797 796 795 795 797 791 793 807 809 804 802 796 789 786 786 789 793 793 794 795 796 797 798 799 800
809 807 805 803 801 798 796 794 791 790 787 785 784 781 781 780 779 779 780 780 781 781 781 781 781 780 781 779 774 775 775 776 776 776 777 778 779 780 780 782 781 782 782 780 779 780 782 781 780 782 780 781 787 790 786 780 786 792 790 795 797 798 803 798 796 795 795 797 790 795 813 811 803 800 791 786 786 787 792 794 793 794 795 796 797 798 799 800
808 806 804 802 800 798 795 793 791 788 786 785 783 782 781 779 779 779 779 780 781 781 781 781 781 781 781 777 774 775 775 775 777 777 777 778 779 780 780 781 781 782 782 782 781 781 782 781 781 780 779 781 782 782 785 785 788 792 794 796 795 803 808 798 795 796 798 797 788 797 816 813 805 798 790 787 785 788 794 794 793 793 795 796 797 798 799 799
808 805 803 801 799 797 794 792 790 787 786 784 783 782 781 780 780 779 780 781 781 781 781 781 781 780 779 776 774 774 775 776 776 776 777 778 778 778 780 781 782 782 783 783 782 782 782 781 782 783 782 779 780 787 792 791 789 791 801 804 797 803 807 800 797 796 799 798 788 801 818 816 809 798 790 788 785 788 793 793 793 793 795 796 796 797 798 798
807 805 803 801 799 796 794 791 789 787 785 784 783 782 781 780 780 780 781 780 781 782 781 782 781 780 781 777 775 774 775 775 775 776 777 777 777 777 779 781 781 782 783 783 782 782 781 781 781 781 783 784 787 793 796 796 794 792 801 807 803 802 802 801 801 795 796 799 793 803 813 811 810 800 790 789 788 790 793 794 793 793 794 795 796 796 797 798
806 804 802 800 798 796 793 790 788 786 784 784 783 782 781 781 780 780 781 781 782 781 781 782 780 780 780 775 775 775 772 772 774 775 776 777 777 777 779 779 780 781 782 782 782 782 781 782 783 783 783 786 788 792 802 805 799 795 798 802 802 801 800 802 805 798 795 800 798 799 802 802 804 799 792 791 791 792 793 794 793 793 794 794 795 795 796 798
806 804 801 799 797 795 793 790 787 785 784 784 783 782 781 781 781 781 781 781 782 781 783 782 780 786 785 776 774 773 770 772 774 774 776 778 778 778 778 777 778 780 783 784 784 783 783 783 785 788 788 789 791 794 804 806 799 800 802 802 801 798 798 802 805 801 797 801 801 800 801 798 797 795 794 792 792 794 794 792 792 792 793 794 795 795 795 797
805 803 801 799 796 794 792 790 787 785 784 784 783 782 781 781 781 782 782 782 782 782 783 780 778 784 784 773 768 769 769 771 773 774 776 777 778 778 777 777 777 780 787 791 788 784 784 787 791 797 795 791 791 791 795 797 796 800 801 802 804 800 798 801 803 800 798 803 801 799 801 798 796 796 796 793 792 796 795 791 792 793 794 794 795 795 795 796
804 802 800 798 796 794 791 789 787 786 785 784 784 783 783 782 782 782 780 779 776 773 773 771 769 773 773 767 766 769 770 772 772 773 775 776 777 778 777 777 779 783 787 790 790 783 784 795 797 794 791 785 787 787 786 789 791 796 799 800 801 800 801 803 803 799 798 804 802 797 800 799 797 795 795 794 794 797 798 795 794 794 795 794 794 794 794 795
803 801 799 797 795 793 791 789 787 786 785 784 784 783 781 780 784 784 779 773 766 764 767 765 764 768 768 766 766 766 769 772 771 770 775 775 774 780 781 780 786 790 787 785 787 784 789 801 794 783 782 783 784 785 785 788 792 795 798 799 797 796 800 803 803 799 798 804 801 796 802 801 797 795 793 794 796 797 796 795 795 794 795 793 793 793 793 793
803 800 798 796 794 792 790 788 787 786 784 784 783 780 776 777 781 780 779 777 767 761 765 764 765 767 764 765 766 765 769 775 775 772 773 773 775 781 782 782 789 789 785 787 790 793 798 798 785 776 779 784 785 785 787 790 793 794 794 797 797 793 798 804 803 799 798 804 801 796 801 799 794 793 792 793 795 793 790 790 791 792 794 793 792 793 792 793
802 799 797 795 792 791 789 786 786 785 784 784 782 778 776 778 778 777 779 781 772 763 763 765 767 767 765 766 765 766 771 774 777 774 770 773 776 777 781 785 787 786 788 792 792 797 800 790 777 773 778 785 788 788 789 791 791 792 792 795 795 792 799 805 804 801 799 801 802 800 799 795 792 793 792 791 791 791 789 788 788 788 790 790 788 789 791 792
800 798 796 793 791 790 787 785 784 784 784 782 781 779 778 779 778 778 777 777 775 766 760 762 762 763 764 763 762 767 771 768 770 771 767 772 775 775 779 782 785 789 789 788 789 793 791 780 774 777 781 785 789 789 790 793 792 789 788 791 791 790 794 798 800 802 800 799 800 800 798 791 790 796 795 790 790 792 792 791 790 788 786 786 785 786 787 789
799 797 795 792 791 788 786 785 783 783 783 779 779 778 778 779 776 778 779 780 778 768 761 761 761 761 758 760 762 762 766 767 764 764 763 767 772 777 780 777 783 791 788 786 790 791 785 775 775 784 785 785 789 789 787 790 791 786 783 784 784 786 790 794 798 801 802 805 802 801 807 799 789 794 795 790 792 795 793 791 791 789 787 787 787 786 786 786
798 796 793 792 790 786 785 783 782 784 780 777 778 777 778 778 776 777 780 785 781 769 766 765 763 762 758 761 761 759 771 773 761 758 762 765 765 771 781 780 781 786 783 783 788 787 781 775 777 784 786 785 789 787 781 783 790 789 781 777 780 783 788 794 797 800 804 808 804 801 811 808 791 790 793 791 796 797 793 792 789 787 787 787 787 786 785 785
797 795 793 791 789 788 785 782 783 783 779 777 777 777 778 777 776 777 783 795 786 767 766 766 763 762 758 759 757 764 781 774 762 763 762 764 764 766 779 783 783 784 779 784 793 785 778 780 783 784 785 787 788 785 777 777 788 790 780 776 781 785 790 794 794 797 797 799 801 797 804 810 798 791 791 792 799 799 794 793 789 785 785 784 784 784 783 783
796 794 792 790 789 789 787 785 785 781 779 778 776 778 778 776 777 777 791 808 788 761 761 763 760 757 755 757 756 764 772 765 770 772 759 762 767 768 780 780 778 782 777 786 796 782 774 782 784 783 786 786 781 778 773 775 785 787 778 777 780 783 788 790 792 794 793 798 806 798 798 810 805 794 794 797 803 807 800 795 791 786 784 783 782 781 780 780
794 793 791 788 787 787 786 785 784 780 779 777 776 778 776 776 777 778 797 807 780 757 758 759 760 759 758 762 762 763 763 762 772 770 760 765 766 767 778 775 772 779 777 781 787 778 773 777 776 778 784 781 775 775 773 775 781 780 776 777 780 783 786 789 791 791 796 806 812 802 797 811 808 794 798 805 806 806 801 793 789 785 783 783 781 779 778 778
792 791 789 787 785 785 785 783 779 778 776 775 777 777 775 778 780 792 811 799 771 760 759 758 763 762 762 769 769 766 765 765 766 765 766 768 766 767 771 769 771 778 779 779 780 776 771 771 772 776 778 775 774 775 774 774 775 775 778 782 786 787 787 790 789 789 803 815 812 803 797 808 812 794 786 794 792 789 790 790 789 786 783 782 780 778 777 776
790 788 787 785 783 784 784 780 776 776 775 775 777 775 777 780 785 803 808 780 764 766 761 762 764 761 763 770 770 768 768 767 764 768 773 771 772 775 775 776 778 783 785 783 779 774 771 775 775 772 770 771 775 777 775 772 772 776 781 786 796 799 798 801 801 800 816 822 812 803 797 805 817 799 777 777 776 774 779 785 787 787 783 781 779 777 775 774
787 785 784 782 781 780 780 777 775 775 775 775 776 774 779 790 796 799 787 768 770 770 760 762 763 760 763 765 766 766 767 769 765 767 771 772 776 777 778 780 780 788 793 785 779 775 773 774 772 771 770 769 775 782 784 779 775 779 783 792 806 814 819 822 817 811 816 816 806 801 803 808 807 790 773 772 772 770 772 775 778 780 780 779 778 777 774 773
783 781 779 778 776 775 774 774 773 774 775 775 776 774 781 800 800 783 770 767 771 763 754 759 759 759 764 766 766 763 764 768 765 765 766 767 773 773 771 769 768 780 787 780 780 781 780 776 772 777 775 767 770 781 791 789 784 785 788 797 808 815 829 833 818 811 812 809 801 799 806 808 795 781 772 769 769 769 769 770 771 773 775 777 777 776 775 773
779 777 775 773 772 772 771 772 772 773 775 775 776 779 790 802 788 770 766 763 760 758 756 759 760 762 765 765 763 759 765 768 762 764 767 768 775 775 770 768 766 771 776 779 780 779 788 788 775 775 774 766 768 771 776 778 781 783 778 785 796 800 817 826 816 814 814 806 804 807 809 802 792 783 771 766 768 768 769 771 771 772 773 773 774 776 777 775
776 774 772 770 771 770 770 771 771 772 774 773 776 784 794 793 776 767 766 757 755 760 759 758 762 767 767 763 759 754 761 766 760 764 769 769 774 772 767 766 765 768 774 783 781 776 787 786 768 766 766 764 769 765 761 770 781 780 773 782 791 785 793 807 808 806 807 807 806 804 799 783 774 771 763 765 769 768 770 772 772 775 773 772 775 776 778 778
774 771 770 770 770 769 769 769 769 771 772 772 779 785 782 774 765 762 759 754 756 759 761 764 764 768 768 763 762 759 758 761 761 765 767 765 765 764 762 759 758 764 770 775 777 776 785 782 766 766 768 763 766 764 760 771 782 781 782 788 784 772 780 800 808 800 804 815 806 793 790 774 766 771 766 768 772 769 771 772 772 774 773 773 776 775 777 779
773 771 769 769 769 768 767 767 768 771 770 771 779 778 767 760 757 756 755 756 757 755 761 769 765 764 766 762 762 762 760 761 763 765 766 766 764 759 758 756 753 757 759 762 768 768 774 779 769 767 774 767 761 763 764 765 770 780 787 782 773 775 781 793 810 810 811 818 801 789 794 785 780 784 774 770 774 773 772 772 772 774 774 774 774 773 775 776
775 772 769 769 768 765 764 766 768 769 769 772 777 771 763 759 755 754 755 756 757 757 763 767 762 760 762 761 758 756 760 765 765 765 765 765 763 754 754 756 752 751 750 753 764 763 766 780 776 765 772 770 761 768 776 768 764 772 775 768 774 793 795 795 809 816 817 817 801 791 794 789 784 781 773 773 775 774 774 774 774 773 773 774 772 773 775 775
775 771 768 768 767 764 765 767 767 767 769 775 776 769 762 759 755 753 754 755 758 761 763 761 759 760 760 758 755 754 759 762 760 763 764 764 762 752 747 751 751 750 748 749 760 762 762 781 786 769 765 769 767 774 783 778 770 770 770 768 773 784 788 791 797 801 807 813 807 801 797 786 776 770 769 776 776 773 776 775 775 773 771 771 771 772 774 775
774 769 767 768 768 767 767 767 767 768 770 770 768 763 760 758 755 752 752 755 757 759 761 759 759 762 760 756 755 754 756 757 755 759 759 758 759 753 746 746 749 751 749 749 756 759 762 776 786 775 767 772 775 774 774 774 773 775 779 781 780 779 780 784 785 783 792 805 808 812 806 785 772 769 770 775 776 773 774 774 774 774 771 771 772 773 774 774
773 769 767 767 768 767 767 768 767 767 767 765 762 761 761 759 757 754 752 754 755 754 756 759 759 760 759 758 757 754 756 757 755 756 756 754 756 755 745 741 745 750 754 757 758 759 763 770 777 779 775 775 773 766 763 765 766 770 774 774 775 778 782 794 797 783 783 795 799 808 810 788 773 772 771 773 776 774 773 773 773 773 773 773 772 772 773 774
774 770 767 767 767 766 767 768 765 764 765 763 760 760 760 759 758 756 753 754 756 754 754 758 759 758 759 758 755 754 756 757 754 754 754 750 749 748 742 738 741 744 751 758 756 751 756 763 771 776 774 770 767 762 763 765 762 764 767 764 766 771 776 792 802 789 785 792 790 799 809 791 772 770 771 774 776 775 774 773 773 774 774 774 773 772 773 774
774 771 766 766 766 765 767 768 765 766 765 759 757 758 757 758 759 757 755 755 756 756 757 758 757 757 756 754 754 755 756 756 754 751 750 748 744 740 738 738 741 742 746 753 754 752 756 764 773 780 774 767 765 762 762 763 764 769 768 763 767 771 769 776 784 784 790 792 789 803 810 792 775 770 770 775 776 776 776 774 774 775 774 774 775 774 775 775
777 773 767 765 765 764 767 767 765 765 762 759 761 760 757 757 757 756 757 756 754 755 758 757 754 754 753 751 753 754 754 757 756 747 746 748 744 740 738 738 741 743 743 746 748 752 762 768 775 789 793 788 785 781 777 773 771 771 767 765 769 769 770 776 775 782 795 789 786 803 803 786 777 772 770 773 774 775 775 772 774 775 774 774 774 774 775 775
777 773 767 763 762 763 765 763 762 763 760 761 765 761 758 758 755 753 755 753 751 753 756 754 750 750 750 750 754 752 750 754 755 747 745 746 743 741 740 739 740 740 738 739 738 743 758 766 771 787 800 804 803 798 787 777 771 768 766 770 773 769 773 780 780 790 801 790 786 800 794 778 773 771 771 773 773 773 773 772 773 774 774 774 774 775 775 774
777 774 770 763 759 760 762 760 762 763 761 763 765 761 760 760 754 751 753 754 752 751 753 751 748 750 752 753 756 756 750 749 750 749 748 745 742 741 741 740 740 739 740 742 737 740 755 762 763 773 782 784 786 781 771 767 768 771 771 771 773 771 771 777 783 791 793 789 790 790 783 780 777 771 771 772 771 773 771 771 773 773 773 774 774 775 775 774
780 777 774 773 768 764 763 761 763 763 762 764 765 761 761 760 756 754 754 753 752 751 752 751 749 753 755 753 756 756 751 748 749 750 750 744 740 742 743 742 741 742 745 743 737 742 758 765 762 766 768 766 767 766 763 764 768 770 771 771 772 773 773 777 783 782 782 791 795 781 776 786 784 771 769 770 770 771 769 769 772 772 772 774 775 775 775 774
780 778 776 779 778 770 767 766 766 765 764 764 764 762 762 761 759 758 755 752 751 751 754 754 751 752 752 752 756 755 751 752 752 750 748 744 743 745 746 744 742 742 744 743 738 741 755 763 760 762 766 763 763 764 763 764 767 766 769 771 771 774 777 779 779 774 776 790 790 778 778 787 780 769 768 768 768 768 767 768 769 770 771 773 775 776 775 774
780 779 776 778 778 773 770 770 769 768 765 765 765 763 762 761 759 758 755 755 754 751 753 756 754 751 749 751 755 756 753 755 756 750 745 745 744 744 748 750 745 741 741 743 743 742 751 761 760 760 766 767 766 766 765 766 769 769 768 769 770 772 774 776 775 770 773 780 777 774 780 781 772 767 767 767 767 765 765 768 770 770 771 772 775 776 775 774
786 786 783 781 777 772 771 770 769 768 765 765 767 763 760 761 760 758 755 757 758 753 752 756 755 751 750 751 754 755 753 754 757 751 746 747 746 743 745 746 743 742 742 743 744 745 753 765 763 758 768 774 769 766 767 768 771 772 770 768 768 771 772 773 773 771 774 778 774 774 782 779 767 764 766 767 767 766 767 769 770 770 770 772 775 775 774 774
794 793 793 790 780 773 772 769 768 770 766 764 764 762 761 761 760 761 758 753 754 755 753 755 755 751 749 750 752 753 751 751 753 749 745 747 745 741 741 738 737 743 745 743 745 746 752 764 763 761 773 777 770 769 770 767 769 775 775 772 770 772 772 771 770 769 773 776 776 780 784 777 766 764 767 768 768 769 769 769 769 769 770 773 774 773 773 774
796 794 794 794 784 774 771 769 768 771 767 762 762 762 763 762 759 762 761 753 749 752 752 753 755 752 750 751 752 751 748 747 746 743 741 741 739 737 738 736 735 740 742 743 746 744 748 759 764 767 775 774 770 771 770 771 782 786 776 767 766 766 767 767 766 766 767 769 774 778 774 767 763 764 767 768 769 770 769 767 768 769 769 772 773 772 773 773